Wind_Speed
104 106 105 100 99 97 98 99 99 103 102 103 108 112 116 112 112 111 107 101 96 92 91 89 89 88 85 83 82 82 80 78 77 79 81 80 77 74
97 96 97 98 96 98 93 97 100 99 101 103 105 107 109 113 112 115 111 110 108 102 99 97 94 93 91 91 90 87 83 84 85 84 84 82 80 78
92 92 90 91 87 83 90 88 83 84 88 98 105 106 106 107 107 110 111 114 106 107 106 105 103 100 98 97 96 93 90 88 91 90 85 82 79 78
76 80 76 74 79 75 79 86 88 87 93 97 104 105 108 107 108 107 106 109 106 103 103 103 103 102 95 94 90 88 88 85 85 83 80 79 74 69
65 67 70 72 74 78 83 87 89 91 95 95 95 99 103 103 104 106 108 108 107 104 101 98 95 94 89 89 82 85 76 74 74 74 73 72 68 64
76 78 81 82 82 85 85 83 87 88 85 86 88 94 96 96 96 97 99 100 102 102 98 97 91 87 84 82 79 76 73 72 71 71 66 67 63 56
66 68 71 72 73 77 79 79 79 80 83 86 87 85 86 89 89 89 89 89 90 92 90 87 85 83 82 80 75 75 75 73 70 71 66 64 62 57
66 69 70 70 72 73 73 73 72 73 73 73 76 82 85 85 82 83 83 85 87 87 87 86 82 82 77 80 76 79 73 73 69 68 62 67 55 52
66 67 68 68 69 71 72 72 70 68 67 68 70 71 73 77 80 80 80 80 82 85 82 81 80 79 77 77 75 72 69 67 64 63 64 59 62 57
68 69 70 71 71 72 71 70 71 73 71 69 69 70 70 72 73 75 77 77 78 79 78 76 78 75 75 73 72 71 67 66 65 65 62 61 62 66
73 73 73 75 75 75 75 75 75 72 68 68 71 73 72 71 71 71 72 71 72 73 75 69 71 69 69 68 69 67 66 64 67 70 69 66 67 70
76 77 77 79 79 78 77 78 80 80 77 74 73 71 70 73 73 73 73 71 71 70 73 70 68 68 68 70 70 67 66 65 66 67 63 62 60 59
75 77 77 78 79 79 79 80 82 83 83 82 80 79 79 76 76 74 73 73 72 69 72 68 67 69 68 68 68 68 62 59 59 60 57 61 58 55
69 72 75 76 78 81 82 83 84 84 85 87 87 87 87 85 83 82 80 78 76 75 76 75 71 71 68 65 68 67 67 66 65 65 61 61 60 57
65 68 71 76 79 81 82 84 85 87 88 89 90 92 93 93 92 91 88 86 85 84 82 81 78 77 74 71 68 79 75 72 75 77 77 72 71 75
61 64 67 71 75 79 81 82 83 85 87 87 88 90 93 95 96 95 95 94 92 92 91 91 89 85 83 79 80 79 85 83 82 86 85 82 76 74
56 60 64 68 72 75 77 79 79 79 79 80 82 85 88 90 93 95 95 96 96 98 99 98 97 96 94 92 89 87 91 90 90 87 85 84 83 79
52 53 56 60 63 67 69 71 73 75 76 77 78 79 81 83 85 89 91 93 94 96 98 100 101 103 102 101 99 98 96 97 98 99 96 91 88 86
51 53 55 56 58 59 59 59 60 61 63 66 71 74 77 81 83 85 85 85 88 91 94 97 96 96 102 107 109 104 102 100 100 98 97 94 91 90
54 57 57 56 57 57 56 57 57 57 57 58 60 63 65 69 73 75 78 80 83 86 89 90 92 92 90 98 109 112 112 110 108 105 103 102 97 96
55 53 53 52 51 50 51 52 52 52 52 53 53 53 55 57 60 63 67 69 71 74 79 83 86 87 87 87 90 103 112 116 119 118 117 114 110 105
52 50 49 48 47 46 45 45 44 45 45 46 46 47 48 49 51 53 55 57 61 64 68 70 73 77 80 84 89 93 93 97 108 118 121 121 119 116
52 49 46 44 42 40 41 40 39 39 39 40 41 42 42 43 43 45 46 49 51 54 56 60 63 66 69 73 77 82 86 90 92 95 103 109 110 114
Wind_Direction
247 251 254 252 251 251 250 249 250 252 254 255 255 257 259 263 265 265 264 263 263 263 265 265 266 267 268 269 270 268 271 274 273 274 275 278 279 283
248 253 257 258 258 257 254 254 255 255 254 257 258 258 258 258 259 263 262 262 261 261 261 262 263 264 267 270 270 270 270 269 271 271 274 276 276 277
248 253 260 263 265 267 264 264 262 259 254 254 255 256 255 257 258 258 261 262 262 261 262 262 263 265 265 268 270 271 272 269 270 270 271 272 273 274
264 265 269 269 269 265 263 259 256 253 252 255 256 256 258 256 256 257 257 259 261 261 261 262 264 266 269 268 268 267 268 267 267 268 269 270 271 270
262 261 258 261 258 258 262 260 257 259 260 257 257 257 257 257 256 257 259 261 260 261 263 264 265 267 266 266 265 267 266 268 267 266 266 266 266 266
264 264 263 263 265 264 265 263 264 265 264 261 258 257 257 258 257 257 257 258 261 262 263 264 264 264 263 266 266 264 265 265 263 263 261 262 262 259
258 259 259 260 260 261 262 262 261 262 261 262 259 257 257 256 256 254 254 254 256 260 262 262 262 262 261 261 262 264 263 262 260 261 261 254 256 255
265 263 263 261 261 261 261 260 260 261 258 260 261 259 255 255 256 255 253 253 254 256 257 259 259 257 258 260 260 260 258 258 254 255 250 249 254 240
267 268 268 268 266 265 264 265 263 261 260 260 258 257 258 257 256 257 256 255 254 255 254 256 257 257 257 255 256 253 254 249 251 244 247 247 242 251
273 270 267 265 265 264 265 266 264 262 261 261 261 260 258 257 256 257 257 256 255 256 257 255 255 253 253 251 250 251 249 247 248 247 249 246 244 247
274 272 270 268 266 263 263 263 263 262 261 260 259 259 258 257 257 256 255 256 255 255 255 252 253 251 251 250 247 249 247 246 245 247 248 249 247 247
272 271 269 268 267 266 265 264 263 264 263 261 260 260 260 258 256 254 253 252 253 252 253 251 250 250 247 247 247 247 249 247 247 247 242 244 245 244
273 271 269 267 266 265 264 263 262 262 263 262 261 260 260 259 258 256 256 253 251 248 251 251 248 248 248 248 247 244 240 241 242 244 245 245 243 249
273 271 269 267 265 263 262 260 260 259 259 260 259 259 259 258 257 256 255 255 254 251 250 250 248 248 246 246 245 246 242 240 244 248 249 252 251 244
273 271 269 267 266 264 262 260 260 259 258 256 257 257 257 256 256 255 254 254 253 252 251 251 247 246 244 243 240 241 242 237 240 247 249 244 246 249
275 272 270 269 269 268 268 267 265 264 262 261 260 258 257 258 257 256 254 253 251 252 251 250 249 247 244 242 239 239 242 247 243 243 244 248 248 249
280 276 274 272 271 270 269 269 268 266 264 263 262 261 260 259 259 258 257 256 254 251 249 248 248 249 248 247 245 240 240 242 247 246 245 247 247 246
291 285 280 278 278 277 275 273 271 269 267 265 261 259 257 256 254 254 254 254 254 253 252 251 247 245 245 246 246 244 242 241 242 245 246 245 246 248
297 294 294 292 288 285 282 279 275 272 269 266 263 261 259 257 255 254 253 252 250 250 250 250 250 247 245 242 243 242 243 242 243 243 244 244 245 244
301 301 299 296 293 290 288 285 282 279 275 271 267 264 261 259 258 257 256 254 252 251 251 250 248 247 244 243 243 241 241 242 244 244 245 245 244 243
308 305 301 298 294 292 289 285 283 280 278 276 273 269 266 263 260 258 257 255 254 252 250 249 249 248 247 244 241 240 240 241 240 241 243 244 245 245
313 310 306 303 301 296 292 288 286 285 283 280 277 273 269 266 264 261 259 256 253 252 251 250 249 247 246 244 242 241 240 238 237 239 240 241 242 243
316 313 312 308 303 300 299 298 295 291 287 284 282 280 276 272 267 263 260 257 254 253 251 249 248 247 246 244 243 242 241 239 237 236 237 238 239 241
Height
10471 10471 10477 10485 10495 10503 10509 10516 10522 10527 10533 10535 10537 10542 10543 10548 10550 10558 10564 10570 10576 10579 10584 10588 10591 10594 10598 10600 10603 10607 10609 10610 10609 10609 10608 10608 10613 10611
10456 10459 10460 10463 10471 10479 10487 10494 10500 10505 10511 10513 10513 10513 10516 10520 10527 10526 10535 10541 10547 10553 10559 10564 10568 10572 10577 10578 10579 10584 10589 10589 10588 10590 10591 10593 10594 10596
10441 10442 10443 10443 10449 10457 10463 10467 10469 10474 10482 10483 10483 10484 10487 10489 10495 10503 10507 10508 10518 10523 10531 10534 10540 10546 10554 10558 10558 10561 10565 10566 10566 10568 10571 10574 10575 10576
10428 10429 10430 10427 10431 10432 10436 10438 10438 10441 10444 10451 10453 10456 10458 10463 10466 10472 10479 10483 10490 10495 10503 10509 10515 10520 10526 10533 10537 10538 10540 10543 10543 10545 10550 10551 10555 10557
10412 10412 10410 10413 10413 10412 10413 10415 10414 10419 10421 10427 10429 10430 10433 10439 10443 10448 10451 10456 10464 10471 10477 10483 10490 10497 10501 10506 10512 10515 10517 10519 10521 10524 10528 10531 10535 10539
10393 10392 10391 10391 10389 10390 10390 10390 10392 10394 10395 10397 10400 10403 10407 10413 10419 10425 10429 10435 10436 10440 10452 10459 10465 10471 10476 10479 10486 10491 10493 10498 10500 10502 10509 10512 10517 10522
10375 10373 10371 10370 10368 10368 10367 10367 10367 10370 10372 10374 10375 10379 10383 10387 10395 10400 10406 10412 10416 10419 10424 10429 10438 10444 10450 10456 10462 10466 10472 10476 10479 10481 10489 10492 10499 10505
10357 10355 10352 10350 10349 10348 10346 10346 10348 10349 10349 10351 10353 10356 10359 10363 10369 10374 10382 10387 10393 10399 10403 10406 10415 10420 10427 10431 10439 10441 10449 10454 10458 10463 10468 10473 10482 10487
10333 10332 10331 10329 10328 10327 10326 10324 10325 10326 10328 10330 10331 10333 10336 10339 10346 10351 10357 10364 10370 10371 10384 10387 10393 10396 10403 10409 10414 10421 10427 10432 10437 10444 10450 10457 10464 10469
10310 10308 10306 10306 10306 10305 10304 10303 10304 10305 10306 10307 10309 10311 10315 10317 10322 10326 10331 10339 10344 10348 10356 10365 10367 10376 10381 10388 10393 10398 10405 10412 10418 10425 10433 10439 10446 10453
10285 10284 10282 10280 10279 10281 10281 10280 10280 10281 10286 10288 10289 10290 10292 10297 10300 10306 10310 10317 10323 10328 10331 10345 10345 10353 10358 10363 10370 10378 10386 10392 10398 10405 10412 10420 10427 10433
10259 10257 10255 10252 10251 10252 10256 10257 10256 10255 10261 10265 10266 10269 10272 10274 10278 10284 10288 10294 10300 10306 10307 10320 10326 10331 10338 10344 10349 10358 10365 10371 10378 10385 10392 10399 10407 10415
10232 10230 10229 10228 10227 10227 10228 10229 10230 10230 10232 10237 10240 10244 10246 10251 10254 10259 10265 10271 10277 10285 10283 10297 10303 10307 10316 10321 10329 10336 10344 10350 10358 10366 10374 10382 10389 10395
10208 10203 10200 10201 10200 10199 10197 10198 10200 10202 10205 10206 10209 10213 10217 10222 10228 10233 10239 10246 10254 10261 10263 10269 10280 10285 10294 10302 10307 10311 10321 10330 10338 10346 10353 10361 10369 10378
10184 10179 10176 10172 10170 10169 10168 10167 10169 10170 10172 10175 10177 10181 10184 10188 10194 10202 10211 10217 10227 10232 10238 10243 10255 10260 10270 10281 10289 10291 10296 10310 10320 10326 10333 10342 10351 10358
10161 10156 10152 10148 10145 10142 10140 10140 10142 10143 10144 10147 10150 10152 10152 10154 10160 10166 10176 10184 10198 10201 10209 10215 10223 10235 10245 10256 10265 10273 10275 10281 10293 10303 10310 10319 10330 10339
10140 10134 10130 10126 10121 10117 10114 10112 10111 10112 10115 10117 10119 10121 10124 10127 10130 10133 10140 10146 10158 10166 10174 10184 10193 10204 10214 10225 10237 10247 10253 10259 10261 10272 10285 10295 10306 10318
10119 10113 10108 10103 10099 10094 10090 10087 10085 10084 10084 10086 10087 10088 10089 10091 10094 10097 10105 10113 10121 10127 10135 10140 10157 10172 10182 10193 10203 10211 10222 10229 10236 10242 10254 10269 10282 10292
10100 10093 10087 10082 10076 10070 10066 10062 10058 10057 10056 10056 10056 10057 10058 10059 10063 10066 10072 10080 10086 10092 10098 10104 10115 10128 10143 10162 10162 10179 10189 10199 10205 10217 10227 10241 10254 10266
10083 10074 10066 10060 10053 10047 10043 10037 10033 10031 10030 10029 10029 10030 10031 10032 10032 10036 10042 10048 10054 10061 10065 10070 10077 10087 10105 10116 10129 10142 10157 10165 10175 10185 10196 10208 10225 10235
10066 10058 10048 10041 10035 10030 10024 10018 10014 10011 10008 10006 10006 10006 10006 10007 10009 10011 10014 10019 10023 10028 10032 10037 10046 10057 10068 10081 10095 10099 10110 10126 10139 10153 10162 10176 10190 10206
10049 10041 10032 10024 10018 10011 10006 10001 9997 9993 9989 9987 9986 9985 9985 9986 9987 9988 9991 9995 9997 10001 10005 10011 10018 10025 10033 10042 10053 10060 10073 10088 10100 10112 10126 10143 10161 10179
10034 10026 10017 10009 10003 9997 9991 9987 9982 9978 9974 9971 9968 9966 9965 9965 9966 9967 9969 9971 9974 9977 9981 9986 9991 9997 10003 10012 10021 10029 10039 10052 10069 10082 10095 10108 10127 10147